Location: Dana
(41.8364°N, 106.7042°W)
Time: 13:05:40
(UTC+00:00)

ISS - Pass Details

Date: 21 April 2026
Orbit: 414 x 424 km, 51.6° (Epoch: 12 May)

Event Time Altitude Azimuth Distance (km) Brightness Sun altitude
Exits shadow 10:27:18 50° 163° (SSE) 537 -3.4 -19.0°
Maximum altitude 10:27:35 53° 141° (SE) 523 -3.4 -19.0°
Drops below altitude 10° 10:30:53 10° 63° (ENE) 1,503 0.3 -18.5°
Sets 10:33:01 0° 59° (ENE) 2,372 1.8 -18.2°
